DH4SBM Weather Reports


Display with metric or nautical units.
time (UTC)temp
F
wind
direction
speed
MPH
gust
MPH
rain 1hr
in
rain 24hr
in
rain mn
in
humidity
%
barometer
mb
20260902043309 53 0 0.0 0.0 0.00 0.00 0.00 91 1022.2
20260902042309 53 0 0.0 0.0 0.00 0.00 0.00 91 1022.1
20260902041308 54 0 0.0 0.0 0.00 0.00 0.00 91 1022.1
20260902040308 54 0 0.0 0.0 0.00 0.00 0.00 91 1022.0
20260902035308 54 0 0.0 0.0 0.00 0.00 0.00 91 1022.0
20260902034308 54 0 0.0 0.0 0.00 0.00 0.00 91 1022.0
20260902033308 54 0 0.0 0.0 0.00 0.00 0.00 90 1022.0
20260902032308 54 0 0.0 0.0 0.00 0.00 0.00 90 1022.1
20260902031307 54 0 0.0 0.0 0.00 0.00 0.00 90 1022.0
20260902030307 54 0 0.0 0.0 0.00 0.00 0.00 90 1022.0
20260902025307 54 0 0.0 0.0 0.00 0.00 0.00 90 1022.0
20260902024307 54 0 0.0 0.0 0.00 0.00 0.00 89 1022.1
20260902023307 55 0 0.0 0.0 0.00 0.00 0.00 89 1022.0
20260902022306 55 0 0.0 0.0 0.00 0.00 0.00 89 1022.0
20260902021306 55 0 0.0 0.0 0.00 0.00 0.00 89 1021.8
20260902020306 56 90 1.0 3.0 0.00 0.00 0.00 88 1021.9
20260902015308 56 90 2.0 3.0 0.00 0.00 0.00 88 1021.9
20260902014307 56 90 1.0 3.0 0.00 0.00 0.00 87 1021.9
20260902013307 56 90 0.0 2.0 0.00 0.00 0.00 87 1022.0
20260902013023 56 90 0.0 2.0 0.00 0.00 0.00 87 1022.0
20260902012023 56 0 0.0 0.0 0.00 0.00 0.00 87 1022.1
20260902011023 57 90 0.0 1.0 0.00 0.00 0.00 87 1022.0
20260902010023 57 90 0.0 1.0 0.00 0.00 0.00 87 1022.1
20260902005022 57 90 0.0 2.0 0.00 0.00 0.00 86 1022.1
20260902004022 57 90 0.0 1.0 0.00 0.00 0.00 86 1022.3
20260902003022 57 90 1.0 2.0 0.00 0.00 0.00 86 1022.3
20260902002022 58 90 0.0 2.0 0.00 0.00 0.00 85 1022.4
20260902001024 58 90 0.0 2.0 0.00 0.00 0.00 85 1022.5
20260902000023 58 90 0.0 2.0 0.00 0.00 0.00 85 1022.5
20260901235023 58 90 1.0 2.0 0.00 0.00 0.00 85 1022.5
20260901234023 58 90 1.0 2.0 0.00 0.00 0.00 85 1022.6
20260901233023 58 0 0.0 0.0 0.00 0.00 0.00 84 1022.5
20260901232023 59 0 0.0 0.0 0.00 0.00 0.00 83 1022.5
20260901231022 59 0 0.0 0.0 0.00 0.00 0.00 83 1022.5
20260901230022 59 0 0.0 0.0 0.00 0.00 0.00 82 1022.5
20260901225022 60 0 0.0 0.0 0.00 0.00 0.00 81 1022.6
20260901224022 60 0 0.0 0.0 0.00 0.00 0.00 80 1022.6
20260901223024 60 0 0.0 0.0 0.00 0.00 0.00 80 1022.5
20260901222023 60 0 0.0 0.0 0.00 0.00 0.00 80 1022.6
20260901221023 60 0 0.0 0.0 0.00 0.00 0.00 80 1022.5
20260901220023 60 0 0.0 0.0 0.00 0.00 0.00 80 1022.5
20260901215023 61 0 0.0 0.0 0.00 0.00 0.00 79 1022.5
20260901214023 61 0 0.0 0.0 0.00 0.00 0.00 79 1022.6
20260901213023 61 0 0.0 0.0 0.00 0.00 0.00 78 1022.6
20260901212023 61 0 0.0 0.0 0.00 0.00 0.00 78 1022.6
20260901211022 62 180 0.0 1.0 0.00 0.00 0.00 77 1022.5
20260901210022 62 180 0.0 2.0 0.00 0.00 0.00 76 1022.5
20260901205022 62 0 0.0 0.0 0.00 0.00 0.00 75 1022.5
20260901204022 63 0 0.0 0.0 0.00 0.00 0.00 74 1022.4
20260901203024 63 180 1.0 3.0 0.00 0.00 0.00 73 1022.5
20260901202023 63 180 1.0 3.0 0.00 0.00 0.00 72 1022.4
20260901201023 64 180 2.0 4.0 0.00 0.00 0.00 71 1022.4
20260901200023 64 180 1.0 2.0 0.00 0.00 0.00 70 1022.4
20260901195023 65 180 0.0 2.0 0.00 0.00 0.00 69 1022.4
20260901194023 65 180 2.0 3.0 0.00 0.00 0.00 69 1022.4
20260901193023 66 180 2.0 4.0 0.00 0.00 0.00 67 1022.2
20260901192023 67 180 2.0 4.0 0.00 0.00 0.00 64 1022.2
20260901191022 68 180 3.0 4.0 0.00 0.00 0.00 62 1022.3
20260901190022 69 202 1.0 3.0 0.00 0.00 0.00 61 1022.2
20260901185022 69 0 0.0 0.0 0.00 0.00 0.00 60 1022.1
20260901184022 69 292 1.0 2.0 0.00 0.00 0.00 60 1022.0
20260901183024 70 292 0.0 2.0 0.00 0.00 0.00 59 1021.9
20260901182024 70 292 1.0 2.0 0.00 0.00 0.00 58 1021.8
20260901181023 70 292 2.0 3.0 0.00 0.00 0.00 57 1021.7
20260901180023 71 292 1.0 3.0 0.00 0.00 0.00 57 1021.6
20260901175023 71 292 2.0 6.0 0.00 0.00 0.00 55 1021.6
20260901174023 71 315 2.0 5.0 0.00 0.00 0.00 55 1021.6
20260901173023 72 315 3.0 5.0 0.00 0.00 0.00 55 1021.6
20260901172022 72 315 3.0 5.0 0.00 0.00 0.00 54 1021.6
20260901171022 73 315 3.0 8.0 0.00 0.00 0.00 53 1021.6
20260901170022 73 292 3.0 8.0 0.00 0.00 0.00 53 1021.7
20260901165022 73 292 5.0 9.0 0.00 0.00 0.00 52 1021.8
20260901164024 74 292 5.0 10.0 0.00 0.00 0.00 52 1021.8
20260901163023 74 292 5.0 10.0 0.00 0.00 0.00 52 1021.9
20260901162023 74 315 5.0 10.0 0.00 0.00 0.00 53 1021.9
20260901161023 74 315 5.0 10.0 0.00 0.00 0.00 52 1021.8
20260901160023 74 360 5.0 9.0 0.00 0.00 0.00 52 1021.9
20260901155023 74 315 5.0 9.0 0.00 0.03 0.00 53 1021.8
20260901154023 74 315 6.0 11.0 0.00 0.03 0.00 52 1021.8
20260901153022 74 315 6.0 11.0 0.00 0.03 0.00 52 1021.8
20260901152022 74 315 4.0 9.0 0.00 0.03 0.00 52 1021.8
20260901151022 74 338 5.0 11.0 0.00 0.03 0.00 50 1021.9
20260901150022 75 315 7.0 12.0 0.00 0.03 0.00 50 1021.8
20260901145024 75 315 7.0 14.0 0.00 0.03 0.00 48 1021.7
20260901144023 75 292 6.0 13.0 0.00 0.03 0.00 45 1021.8
20260901143023 76 270 6.0 12.0 0.00 0.03 0.00 46 1021.9
20260901142023 75 270 6.0 14.0 0.00 0.03 0.00 45 1022.0
20260901141023 75 292 6.0 11.0 0.00 0.03 0.00 47 1022.0
20260901140023 75 292 8.0 16.0 0.00 0.03 0.00 48 1022.2
20260901135023 74 292 5.0 8.0 0.00 0.03 0.00 49 1022.2
20260901134022 74 292 9.0 15.0 0.00 0.03 0.00 49 1022.3
20260901133022 74 315 6.0 13.0 0.00 0.03 0.00 50 1022.2
20260901132022 74 270 6.0 11.0 0.00 0.03 0.00 49 1022.4
20260901131024 75 292 7.0 13.0 0.00 0.03 0.00 49 1022.4
20260901053024 58 0 0.0 0.0 0.00 0.04 0.00 86 1022.6
20260901052023 58 0 0.0 0.0 0.00 0.04 0.00 86 1022.6
20260901051023 58 0 0.0 0.0 0.00 0.04 0.00 85 1022.6
20260901050023 59 0 0.0 0.0 0.00 0.04 0.00 85 1022.5
20260901045023 59 0 0.0 0.0 0.00 0.04 0.00 85 1022.4